Погода в Бендер-Энзели

Иран     37°28′18″N   49°28′00″E
В апреле 2022 года жителям России запретили посещать сайт meteo.paraplan.net по решению Генеральной прокуратуры. Аудитория сайта уменьшилась в 10 раз. Владельцы сайта не видят смысла в поддержке погодного сервера в таких условиях. Сайт будет закрыт в октябре.
темп.,
°C
ветер,
м/с
пор.,
м/с
влажн.,
%
обл.,
%
осадки,
мм/ч
давл.,
гПа
погр.,
м
6 октября, чт
чт600:30+22зсз11760 0.0 1018164
03:30+23сз34780 0.0 1019359
06:30+23сз458017 0.0 1020595
09:30+24сз667432 0.1 1021875
12:30+24ссз556971 0.0 10211016
15:30+23с4474100 0.1 1019488
18:30+23с3475100 0.1 1020355
21:30+22с3477100 0.3 1021456
7 октября, пт
пт700:30+22с4482100 0.8 1022416
03:30+21св4485100 3.4 1022405
06:30+21св4583100 2.2 1023492
09:30+21ссв348398 4.0 1024465
12:30+21с4484100 2.3 1024461
15:30+21с348278 4.5 1023470
18:30+21с238198 1.5 1023437
21:30+20с1282100 2.8 1024366
8 октября, сб
сб800:30+20с1280100 1.1 1023391
03:30+20ссв1280100 2.0 1023448
06:30+20ссз017997 0.4 1023454
09:30+20з018095 0.7 1023363
12:30+22ссв227223 0.1 1021710
15:30+22св336931 0.1 1019634
18:30+22всв227086 0.0 1020480
21:30+21вюв117198 0.0 1020542
9 октября, вс
вс900:30+21ююв117488 0.0 1019346
03:30+20ю117956 0.0 1019262
06:30+20ююз118233 0.0 1019195
09:30+21юв01779 0.0 1019325
12:30+23св33701 0.0 1016609
15:30+24всв55730 0.0 1015571
18:30+22вюв45800 0.0 1014394
21:30+22в23825 0.0 1015390
10 октября, пн
пн1000:30+22св118026 0.0 1015412
03:30+21ююв11835 0.0 1013218
06:30+20ююв11885 0.0 1012137
09:30+23вюв23760 0.0 1012254
12:30+25св43680 0.0 1010309
15:30+24ссв6677100 0.0 1010557
18:30+23ссз348021 0.0 1014460
21:30+22сз458321 0.1 1016489